Time,TemperatureF,DewpointF,PressureIn,WindDirection,WindDirectionDegrees,WindSpeedMPH,WindSpeedGustMPH,Humidity,HourlyPrecipIn,Conditions,Clouds,dailyrainin,SoftwareType,DateUTC
2013-01-09 00:02:00,47.7,26.9,30.26,East,91,4.0,6.0,44,0.00,,---,0.00,VWS V13.01,2013-01-09 08:02:00,
2013-01-09 00:32:00,47.3,27.0,30.27,East,89,2.0,5.0,45,0.00,,---,0.00,VWS V13.01,2013-01-09 08:32:00,
2013-01-09 01:02:00,47.4,26.6,30.27,ESE,108,2.0,6.0,44,0.00,,---,0.00,VWS V13.01,2013-01-09 09:02:00,
2013-01-09 01:32:00,48.9,26.8,30.26,East,98,5.0,6.0,42,0.00,,---,0.00,VWS V13.01,2013-01-09 09:32:00,
2013-01-09 02:02:00,49.1,27.0,30.25,East,98,4.0,7.0,42,0.00,,---,0.00,VWS V13.01,2013-01-09 10:02:00,
2013-01-09 02:32:00,49.4,26.7,30.24,East,91,3.0,7.0,41,0.00,,---,0.00,VWS V13.01,2013-01-09 10:32:00,
2013-01-09 03:02:00,49.1,27.0,30.25,East,91,5.0,7.0,42,0.00,,---,0.00,VWS V13.01,2013-01-09 11:02:00,
2013-01-09 03:32:00,49.4,27.3,30.25,East,86,6.0,8.0,42,0.00,,---,0.00,VWS V13.01,2013-01-09 11:32:00,
2013-01-09 04:02:00,49.2,27.1,30.25,ESE,113,4.0,9.0,42,0.00,,---,0.00,VWS V13.01,2013-01-09 12:02:00,
2013-01-09 04:32:00,49.4,27.3,30.32,East,84,5.0,7.0,42,0.00,,---,0.00,VWS V13.01,2013-01-09 12:32:00,
2013-01-09 05:02:00,48.6,27.7,30.32,East,94,4.0,8.0,44,0.00,,---,0.00,VWS V13.01,2013-01-09 13:02:00,
2013-01-09 05:32:00,48.8,27.9,30.35,East,84,6.0,10.0,44,0.00,,---,0.00,VWS V13.01,2013-01-09 13:32:00,
2013-01-09 06:02:00,49.2,28.2,30.36,SE,127,3.0,8.0,44,0.00,,---,0.00,VWS V13.01,2013-01-09 14:02:00,
2013-01-09 06:32:00,48.0,28.2,30.39,East,86,5.0,7.0,46,0.00,,---,0.00,VWS V13.01,2013-01-09 14:32:00,
2013-01-09 07:02:00,47.3,28.6,30.40,East,98,4.0,6.0,48,0.00,,---,0.00,VWS V13.01,2013-01-09 15:02:00,
2013-01-09 07:32:00,47.3,29.1,30.41,East,84,4.0,6.0,49,0.00,,---,0.00,VWS V13.01,2013-01-09 15:32:00,
2013-01-09 08:02:00,49.2,29.3,30.40,East,99,5.0,6.0,46,0.00,,---,0.00,VWS V13.01,2013-01-09 16:02:00,
2013-01-09 08:32:00,52.5,31.2,30.33,SE,135,0.0,5.0,44,0.00,,---,0.00,VWS V13.01,2013-01-09 16:32:00,
2013-01-09 09:02:00,55.3,30.1,30.32,South,176,0.0,8.0,38,0.00,,---,0.00,VWS V13.01,2013-01-09 17:02:00,
2013-01-09 09:32:00,55.9,29.4,30.31,West,279,0.0,14.0,36,0.00,,---,0.00,VWS V13.01,2013-01-09 17:32:00,
2013-01-09 10:02:00,57.5,31.5,30.29,SSW,201,4.0,7.0,37,0.00,,---,0.00,VWS V13.01,2013-01-09 18:02:00,
2013-01-09 10:32:00,57.0,30.3,30.29,SE,125,2.0,12.0,36,0.00,,---,0.00,VWS V13.01,2013-01-09 18:32:00,
2013-01-09 11:02:00,58.1,30.6,30.26,SSE,157,5.0,11.0,35,0.00,,---,0.00,VWS V13.01,2013-01-09 19:02:00,
2013-01-09 11:32:00,58.4,30.2,30.25,NE,51,0.0,11.0,34,0.00,,---,0.00,VWS V13.01,2013-01-09 19:32:00,
2013-01-09 12:02:00,58.9,29.9,30.23,SE,146,2.0,10.0,33,0.00,,---,0.00,VWS V13.01,2013-01-09 20:02:00,
2013-01-09 12:32:00,60.5,30.5,30.21,ENE,66,3.0,7.0,32,0.00,,---,0.00,VWS V13.01,2013-01-09 20:32:00,
2013-01-09 13:02:00,62.4,33.7,30.20,East,86,0.0,9.0,34,0.00,,---,0.00,VWS V13.01,2013-01-09 21:02:00,
2013-01-09 13:32:00,62.0,31.8,30.18,SW,232,1.0,7.0,32,0.00,,---,0.00,VWS V13.01,2013-01-09 21:32:00,
2013-01-09 14:02:00,60.1,33.1,30.18,North,358,0.0,7.0,36,0.00,,---,0.00,VWS V13.01,2013-01-09 22:02:00,
2013-01-09 14:32:00,59.5,33.9,30.18,NNE,32,0.0,7.0,38,0.00,,---,0.00,VWS V13.01,2013-01-09 22:32:00,
2013-01-09 15:02:00,59.0,34.1,30.18,NNE,19,0.0,6.0,39,0.00,,---,0.00,VWS V13.01,2013-01-09 23:02:00,
2013-01-09 15:32:00,58.0,35.7,30.18,WNW,283,0.0,6.0,43,0.00,,---,0.00,VWS V13.01,2013-01-09 23:32:00,
2013-01-09 16:02:00,56.5,36.5,30.17,North,0,0.0,5.0,47,0.00,,---,0.00,VWS V13.01,2013-01-10 00:02:00,
2013-01-09 16:32:00,54.2,37.5,30.18,NNE,29,0.0,4.0,53,0.00,,---,0.00,VWS V13.01,2013-01-10 00:32:00,
2013-01-09 17:02:00,51.0,40.1,30.18,East,93,0.0,3.0,66,0.00,,---,0.00,VWS V13.01,2013-01-10 01:02:00,
2013-01-09 17:32:00,48.3,40.8,30.20,East,96,0.0,3.0,75,0.00,,---,0.00,VWS V13.01,2013-01-10 01:32:00,
2013-01-09 18:02:00,45.7,40.2,30.20,East,96,0.0,3.0,81,0.00,,---,0.00,VWS V13.01,2013-01-10 02:02:00,
2013-01-09 18:32:00,45.7,41.8,30.20,East,96,0.0,3.0,86,0.00,,---,0.00,VWS V13.01,2013-01-10 02:32:00,
2013-01-09 19:02:00,45.5,41.9,30.20,NE,49,0.0,7.0,87,0.00,,---,0.00,VWS V13.01,2013-01-10 03:02:00,
2013-01-09 19:32:00,45.8,41.9,30.19,ENE,72,2.0,11.0,86,0.00,,---,0.00,VWS V13.01,2013-01-10 03:32:00,
2013-01-09 20:02:00,44.6,36.5,30.18,ENE,70,0.0,4.0,73,0.00,,---,0.00,VWS V13.01,2013-01-10 04:02:00,
2013-01-09 20:32:00,44.6,32.8,30.15,NNE,25,1.0,6.0,63,0.00,,---,0.00,VWS V13.01,2013-01-10 04:32:00,
2013-01-09 21:02:00,45.4,29.3,30.14,South,182,2.0,9.0,53,0.00,,---,0.00,VWS V13.01,2013-01-10 05:02:00,
2013-01-09 21:32:00,46.0,29.8,30.12,West,280,0.0,7.0,53,0.00,,---,0.00,VWS V13.01,2013-01-10 05:32:00,
2013-01-09 22:02:00,44.8,29.6,30.12,WSW,253,1.0,6.0,55,0.00,,---,0.00,VWS V13.01,2013-01-10 06:02:00,
2013-01-09 22:32:00,46.8,27.1,30.12,West,271,5.0,12.0,46,0.00,,---,0.00,VWS V13.01,2013-01-10 06:32:00,
2013-01-09 23:02:00,44.8,28.7,30.12,West,265,0.0,11.0,53,0.00,,---,0.00,VWS V13.01,2013-01-10 07:02:00,
2013-01-09 23:32:00,46.5,26.3,30.09,SW,236,3.0,13.0,45,0.00,,---,0.00,VWS V13.01,2013-01-10 07:32:00,